TCA7378 BGBW-CYCH

Flight info

Callsign TCA7378
Flight time N/A
Altitude 40000
Route ELGAG DCT LOMSI/N0407F400 DCT XOXES DCT TIGAV DCT SASOV
Aircraft C25B/M-SDE2E3FGHRWXY/LB1

Departure

Time 2026-04-11 13:28
Airport Narsarsuaq Airport (BGBW)

Arrival

Time N/A
Airport Miramichi Airport (CYCH)
Time Latitude Longitude Altitude Speed Heading
2026-04-11 13:19 61.16181 -45.41867 79 ft 0 kts 43°
2026-04-11 13:26 61.16182 -45.41865 79 ft 2 kts 43°
2026-04-11 13:26 61.16212 -45.41837 79 ft 9 kts 335°
2026-04-11 13:26 61.16274 -45.41980 80 ft 16 kts 310°
2026-04-11 13:27 61.16363 -45.42062 81 ft 17 kts 36°
2026-04-11 13:27 61.16458 -45.41895 82 ft 18 kts 41°
2026-04-11 13:27 61.16558 -45.41718 83 ft 19 kts 39°
2026-04-11 13:27 61.16663 -45.41557 89 ft 19 kts 20°
2026-04-11 13:28 61.16671 -45.41519 90 ft 0 kts 225°
2026-04-11 13:28 61.16653 -45.41554 88 ft 29 kts 222°
2026-04-11 13:28 61.16147 -45.42454 100 ft 155 kts 221°
2026-04-11 13:28 61.15261 -45.44286 942 ft 201 kts 238°
2026-04-11 13:29 61.14899 -45.47219 2111 ft 219 kts 264°
2026-04-11 13:29 61.14697 -45.50347 3270 ft 224 kts 262°
2026-04-11 13:29 61.14594 -45.53595 4495 ft 229 kts 269°
2026-04-11 13:29 61.14531 -45.56929 5646 ft 235 kts 265°
2026-04-11 13:30 61.14396 -45.60333 6809 ft 240 kts 265°
2026-04-11 13:30 61.14280 -45.63809 7971 ft 244 kts 265°
2026-04-11 13:30 61.14151 -45.67361 9067 ft 250 kts 265°
2026-04-11 13:30 61.14033 -45.70984 10140 ft 254 kts 265°
2026-04-11 13:31 61.13900 -45.74598 11235 ft 256 kts 264°
2026-04-11 13:31 61.13769 -45.78294 12362 ft 258 kts 265°
2026-04-11 13:31 61.13636 -45.82015 13443 ft 261 kts 264°
2026-04-11 13:31 61.13502 -45.85790 14488 ft 265 kts 265°
2026-04-11 13:32 61.13358 -45.89618 15532 ft 269 kts 265°
2026-04-11 13:32 61.13201 -45.93498 16532 ft 273 kts 261°
2026-04-11 13:32 61.12575 -45.97211 17496 ft 276 kts 243°
2026-04-11 13:32 61.11504 -46.00517 18420 ft 280 kts 226°
2026-04-11 13:33 61.10041 -46.03212 19367 ft 283 kts 220°
2026-04-11 13:33 61.08574 -46.05880 20280 ft 287 kts 221°
2026-04-11 13:33 61.07042 -46.08580 21154 ft 291 kts 220°
2026-04-11 13:33 61.05494 -46.11325 22022 ft 295 kts 220°
2026-04-11 13:34 61.03921 -46.14115 22836 ft 300 kts 220°
2026-04-11 13:34 61.02335 -46.16944 23631 ft 303 kts 220°
2026-04-11 13:34 61.00719 -46.19791 24390 ft 307 kts 220°
2026-04-11 13:34 60.99087 -46.22678 25136 ft 311 kts 220°
2026-04-11 13:35 60.97460 -46.25551 25865 ft 314 kts 220°
2026-04-11 13:35 60.95794 -46.28488 26554 ft 317 kts 220°
2026-04-11 13:35 60.94108 -46.31463 27240 ft 320 kts 220°
2026-04-11 13:35 60.92405 -46.34448 27889 ft 323 kts 220°
2026-04-11 13:36 60.90689 -46.37459 28530 ft 326 kts 220°
2026-04-11 13:36 60.88956 -46.40503 29144 ft 329 kts 220°
2026-04-11 13:36 60.87207 -46.43557 29726 ft 332 kts 220°
2026-04-11 13:36 60.85512 -46.46526 30990 ft 307 kts 221°
2026-04-11 13:37 60.83959 -46.49233 32344 ft 282 kts 221°
2026-04-11 13:37 60.82485 -46.51796 32983 ft 283 kts 222°
2026-04-11 13:37 60.80977 -46.54425 33481 ft 286 kts 223°
2026-04-11 13:37 60.79452 -46.57071 33976 ft 289 kts 223°
2026-04-11 13:38 60.77919 -46.59743 34469 ft 291 kts 223°
2026-04-11 13:38 60.76364 -46.62436 34930 ft 294 kts 223°
2026-04-11 13:38 60.74799 -46.65143 35379 ft 297 kts 223°
2026-04-11 13:38 60.73216 -46.67881 35804 ft 300 kts 223°
2026-04-11 13:39 60.71634 -46.70615 36216 ft 303 kts 223°
2026-04-11 13:39 60.70020 -46.73398 36626 ft 306 kts 223°
2026-04-11 13:39 60.68385 -46.76213 37029 ft 308 kts 223°
2026-04-11 13:39 60.66744 -46.79042 37435 ft 310 kts 223°
2026-04-11 13:40 60.65088 -46.81875 37843 ft 312 kts 223°
2026-04-11 13:40 60.63423 -46.84737 38200 ft 315 kts 223°
2026-04-11 13:40 60.61734 -46.87630 38546 ft 318 kts 223°
2026-04-11 13:40 60.60036 -46.90536 38910 ft 320 kts 223°
2026-04-11 13:41 60.58317 -46.93465 39227 ft 324 kts 222°
2026-04-11 13:41 60.56610 -46.96373 39537 ft 326 kts 223°
2026-04-11 13:41 60.54866 -46.99352 39838 ft 330 kts 223°
2026-04-11 13:41 60.53088 -47.02373 39964 ft 338 kts 223°
2026-04-11 13:42 60.51258 -47.05486 39982 ft 349 kts 223°
2026-04-11 13:42 60.49362 -47.08702 39984 ft 360 kts 222°
2026-04-11 13:42 60.47412 -47.11999 39989 ft 370 kts 222°
2026-04-11 13:43 60.43421 -47.18734 39985 ft 377 kts 222°
2026-04-11 13:43 60.39389 -47.25515 39981 ft 376 kts 222°
2026-04-11 13:44 60.35358 -47.32281 39978 ft 377 kts 222°
2026-04-11 13:44 60.31321 -47.39019 39982 ft 377 kts 222°
2026-04-11 13:45 60.27313 -47.45708 39985 ft 376 kts 222°
2026-04-11 13:45 60.23276 -47.52403 39987 ft 376 kts 222°
2026-04-11 13:46 60.19237 -47.59090 39989 ft 376 kts 222°
2026-04-11 13:46 60.15201 -47.65746 39989 ft 376 kts 222°
2026-04-11 13:47 60.11186 -47.72352 39989 ft 375 kts 222°
2026-04-11 13:47 60.07143 -47.78976 39992 ft 375 kts 222°
2026-04-11 13:48 60.03102 -47.85578 39990 ft 375 kts 222°
2026-04-11 13:48 59.99054 -47.92166 39990 ft 375 kts 222°
2026-04-11 13:49 59.95006 -47.98732 39990 ft 375 kts 221°
2026-04-11 13:49 59.90985 -48.05245 39993 ft 375 kts 222°
2026-04-11 13:50 59.86928 -48.11777 39990 ft 375 kts 222°
2026-04-11 13:50 59.82879 -48.18291 39989 ft 375 kts 221°
2026-04-11 13:51 59.78825 -48.24786 39993 ft 375 kts 221°
2026-04-11 13:51 59.74787 -48.31240 39991 ft 375 kts 221°
2026-04-11 13:52 59.70726 -48.37702 39991 ft 375 kts 222°
2026-04-11 13:52 59.66664 -48.44149 39992 ft 374 kts 221°
2026-04-11 13:53 59.62599 -48.50575 39993 ft 374 kts 222°
2026-04-11 13:53 59.58556 -48.56936 39993 ft 374 kts 221°
2026-04-11 13:54 59.54493 -48.63340 39994 ft 374 kts 221°
2026-04-11 13:54 59.50428 -48.69701 39993 ft 373 kts 221°
2026-04-11 13:55 59.46363 -48.76053 39993 ft 373 kts 221°
2026-04-11 13:55 59.42326 -48.82343 39994 ft 373 kts 221°
2026-04-11 13:56 59.38258 -48.88645 40004 ft 372 kts 221°
2026-04-11 13:56 59.34195 -48.94933 40004 ft 372 kts 221°
2026-04-11 13:57 59.30130 -49.01200 40003 ft 372 kts 221°
2026-04-11 13:57 59.26093 -49.07408 40004 ft 371 kts 221°
2026-04-11 13:58 59.22034 -49.13629 40004 ft 371 kts 221°
2026-04-11 13:58 59.17969 -49.19840 40003 ft 371 kts 221°
2026-04-11 13:59 59.13906 -49.26030 40013 ft 370 kts 221°
2026-04-11 13:59 59.09869 -49.32160 40013 ft 370 kts 221°
2026-04-11 14:00 59.05811 -49.38306 40014 ft 370 kts 221°
2026-04-11 14:00 58.99717 -49.47490 40014 ft 369 kts 221°
2026-04-11 14:01 58.95654 -49.53593 40014 ft 369 kts 221°
2026-04-11 14:01 58.91626 -49.59627 40022 ft 368 kts 221°
2026-04-11 14:02 58.87568 -49.65685 40023 ft 368 kts 221°
2026-04-11 14:02 58.83512 -49.71725 40023 ft 368 kts 221°
2026-04-11 14:03 58.79456 -49.77745 40022 ft 368 kts 221°
2026-04-11 14:03 58.75429 -49.83705 40024 ft 367 kts 221°
2026-04-11 14:04 58.71379 -49.89678 40024 ft 367 kts 221°
2026-04-11 14:04 58.67328 -49.95636 40031 ft 366 kts 221°
2026-04-11 14:05 58.63276 -50.01576 40031 ft 366 kts 221°
2026-04-11 14:05 58.59227 -50.07493 40032 ft 366 kts 221°
2026-04-11 14:06 58.55207 -50.13352 40032 ft 365 kts 221°
2026-04-11 14:06 58.51160 -50.19232 40035 ft 365 kts 221°
2026-04-11 14:07 58.47117 -50.25092 40042 ft 365 kts 221°
2026-04-11 14:07 58.43073 -50.30934 40042 ft 364 kts 221°
2026-04-11 14:08 58.39055 -50.36723 40040 ft 364 kts 221°
2026-04-11 14:08 58.35013 -50.42528 40041 ft 364 kts 221°
2026-04-11 14:09 58.30968 -50.48322 40047 ft 364 kts 221°
2026-04-11 14:09 58.26922 -50.54099 40053 ft 364 kts 221°
2026-04-11 14:10 58.22874 -50.59863 40048 ft 364 kts 221°
2026-04-11 14:10 58.18824 -50.65613 40044 ft 364 kts 221°
2026-04-11 14:11 58.14770 -50.71349 40044 ft 364 kts 221°
2026-04-11 14:11 58.10750 -50.77023 40064 ft 363 kts 221°
2026-04-11 14:12 58.06696 -50.82728 40059 ft 363 kts 221°
2026-04-11 14:12 58.02639 -50.88419 40058 ft 363 kts 220°
2026-04-11 14:13 57.98606 -50.94061 40064 ft 363 kts 221°
2026-04-11 14:13 57.94546 -50.99720 40075 ft 363 kts 221°
2026-04-11 14:14 57.90495 -51.05356 40075 ft 362 kts 221°
2026-04-11 14:14 57.86436 -51.10985 40076 ft 362 kts 221°
2026-04-11 14:15 57.82388 -51.16586 40077 ft 362 kts 221°
2026-04-11 14:15 57.78335 -51.22175 40078 ft 361 kts 221°
2026-04-11 14:16 57.74310 -51.27712 40078 ft 361 kts 221°
2026-04-11 14:16 57.70257 -51.33271 40077 ft 361 kts 221°
2026-04-11 14:17 57.66207 -51.38810 40077 ft 361 kts 221°
2026-04-11 14:17 57.62151 -51.44340 40087 ft 361 kts 220°
2026-04-11 14:18 57.58122 -51.49818 40087 ft 361 kts 220°
2026-04-11 14:18 57.54063 -51.55321 40087 ft 361 kts 220°
2026-04-11 14:19 57.50006 -51.60806 40087 ft 361 kts 220°
2026-04-11 14:19 57.45945 -51.66281 40096 ft 361 kts 220°
2026-04-11 14:20 57.41881 -51.71743 40125 ft 360 kts 220°
2026-04-11 14:20 57.37855 -51.77141 40151 ft 359 kts 220°
2026-04-11 14:21 57.33798 -51.82564 40151 ft 360 kts 220°
2026-04-11 14:21 57.29745 -51.87968 40161 ft 359 kts 220°
2026-04-11 14:22 57.25684 -51.93369 40161 ft 360 kts 220°
2026-04-11 14:22 57.21619 -51.98759 40161 ft 360 kts 220°
2026-04-11 14:23 57.17552 -52.04139 40163 ft 360 kts 220°
2026-04-11 14:23 57.13485 -52.09502 40164 ft 359 kts 220°
2026-04-11 14:24 57.09444 -52.14815 40171 ft 359 kts 220°
2026-04-11 14:24 57.05382 -52.20144 40170 ft 359 kts 220°
2026-04-11 14:25 57.01315 -52.25464 40171 ft 359 kts 220°
2026-04-11 14:25 56.97275 -52.30734 40170 ft 359 kts 220°
2026-04-11 14:26 56.93204 -52.36028 40171 ft 359 kts 220°
2026-04-11 14:26 56.89134 -52.41309 40171 ft 359 kts 220°
2026-04-11 14:27 56.85067 -52.46570 40190 ft 358 kts 220°
2026-04-11 14:27 56.81009 -52.51804 40233 ft 357 kts 220°
2026-04-11 14:28 56.76977 -52.56993 40240 ft 357 kts 220°
2026-04-11 14:28 56.72915 -52.62203 40246 ft 357 kts 220°
2026-04-11 14:29 56.68854 -52.67399 40247 ft 357 kts 220°
2026-04-11 14:29 56.64787 -52.72590 40242 ft 357 kts 220°
2026-04-11 14:30 56.60715 -52.77772 40232 ft 357 kts 220°
2026-04-11 14:30 56.56669 -52.82908 40238 ft 357 kts 220°
2026-04-11 14:31 56.52596 -52.88063 40241 ft 357 kts 220°
2026-04-11 14:31 56.48529 -52.93201 40238 ft 357 kts 220°
2026-04-11 14:32 56.44457 -52.98330 40237 ft 357 kts 220°
2026-04-11 14:32 56.40411 -53.03413 40239 ft 356 kts 220°
2026-04-11 14:33 56.36336 -53.08518 40239 ft 356 kts 220°
2026-04-11 14:33 56.32262 -53.13609 40239 ft 356 kts 220°
2026-04-11 14:34 56.28188 -53.18686 40238 ft 356 kts 220°
2026-04-11 14:34 56.24147 -53.23708 40243 ft 356 kts 220°
2026-04-11 14:35 56.20073 -53.28757 40245 ft 356 kts 220°
2026-04-11 14:35 56.16002 -53.33790 40241 ft 355 kts 219°
2026-04-11 14:36 56.11958 -53.38775 40242 ft 355 kts 219°
2026-04-11 14:36 56.07892 -53.43774 40244 ft 355 kts 219°
2026-04-11 14:37 56.03822 -53.48767 40242 ft 354 kts 219°
2026-04-11 14:37 55.99754 -53.53743 40244 ft 354 kts 219°
2026-04-11 14:38 55.95689 -53.58705 40248 ft 354 kts 220°
2026-04-11 14:38 55.91624 -53.63651 40252 ft 353 kts 219°
2026-04-11 14:39 55.87593 -53.68545 40243 ft 353 kts 219°
2026-04-11 14:39 55.83532 -53.73463 40246 ft 353 kts 219°
2026-04-11 14:40 55.79470 -53.78369 40246 ft 353 kts 219°
2026-04-11 14:40 55.75409 -53.83264 40247 ft 353 kts 219°
2026-04-11 14:41 55.71350 -53.88142 40244 ft 353 kts 219°
2026-04-11 14:41 55.67313 -53.92982 40248 ft 353 kts 219°
2026-04-11 14:42 55.63247 -53.97843 40251 ft 353 kts 219°
2026-04-11 14:43 55.57146 -54.05109 40243 ft 352 kts 219°
2026-04-11 14:43 55.53081 -54.09940 40244 ft 352 kts 219°
2026-04-11 14:44 55.49018 -54.14756 40246 ft 352 kts 219°
2026-04-11 14:44 55.44976 -54.19534 40244 ft 352 kts 219°
2026-04-11 14:45 55.40907 -54.24333 40253 ft 352 kts 219°
2026-04-11 14:45 55.36838 -54.29118 40249 ft 352 kts 219°
2026-04-11 14:46 55.32774 -54.33885 40250 ft 351 kts 219°
2026-04-11 14:46 55.28706 -54.38645 40252 ft 351 kts 219°
2026-04-11 14:47 55.24665 -54.43358 40253 ft 351 kts 219°
2026-04-11 14:47 55.20600 -54.48093 40248 ft 351 kts 219°
2026-04-11 14:48 55.16532 -54.52815 40249 ft 351 kts 219°
2026-04-11 14:48 55.12468 -54.57525 40254 ft 351 kts 219°
2026-04-11 14:49 55.08399 -54.62228 40251 ft 351 kts 219°
2026-04-11 14:49 55.02321 -54.69230 40256 ft 351 kts 219°
2026-04-11 14:50 54.98250 -54.73905 40252 ft 350 kts 219°
2026-04-11 14:50 54.94179 -54.78573 40249 ft 350 kts 219°
2026-04-11 14:51 54.90108 -54.83220 40259 ft 350 kts 219°
2026-04-11 14:51 54.86036 -54.87863 40256 ft 350 kts 219°
2026-04-11 14:52 54.81993 -54.92467 40256 ft 350 kts 219°
2026-04-11 14:52 54.77913 -54.97084 40259 ft 350 kts 219°
2026-04-11 14:53 54.73841 -55.01707 40253 ft 350 kts 219°
2026-04-11 14:53 54.69772 -55.06301 40258 ft 349 kts 219°
2026-04-11 14:54 54.65710 -55.10870 40252 ft 349 kts 219°
2026-04-11 14:54 54.61637 -55.15447 40256 ft 349 kts 219°
2026-04-11 14:55 54.57598 -55.19971 40256 ft 348 kts 219°
2026-04-11 14:55 54.53527 -55.24529 40258 ft 349 kts 219°